Starlink 31724

operational
NORAD ID: 59554 Int'l Des: 2024-074 Owner: SPXS Country: US Constellation: starlink
LEOCIRCULAR

关于 Starlink 31724

正在加载描述...

实时位置

正在加载3D地球...

即将过境

高度历史

Altitude vs Time

uPlot chart will show altitude changes over time

两行轨道根数

1 59554U 24074W 25302.78183624 -.00006014 00000-0 -20894-3 0 9995
2 59554 43.0060 326.7863 0001759 268.1320 91.9330 15.27618636 86400
Epoch: Oct 29, 2025 • Age: 44 hours

当前状态

高度 487.0 km
速度 7.63 km/s
星下点 41.81°N, 123.13°E
发射日期 Apr 18, 2024
运行时间 1.5 years
类型 internet

技术详情

分类 Payload
质量 730.00 kg
干质量 700.00 kg
总质量 730.00 kg
长度 0.30 m
直径 4.10 m
跨度 29.00 m
形状 Box + pan
制造商 SPXS
平台类型 Starlink V2M
阶段状态 In Orbit
所有者/国家 SPXS/US

大型星座

Loading constellations...